Probability
0 0 0 0 0 0 0 0 0 0 0 0 0 0 0 0 0 3 3 3 3 6 6 3 3 3 3 0 0 0 3 3 6 10 10 3 3 0 0 0 0 0 0 0
0 0 0 0 0 0 0 0 0 0 0 0 0 0 0 0 0 3 6 3 3 6 6 3 3 3 0 0 0 0 0 0 0 0 3 6 6 6 3 0 0 0 0 0
0 0 0 0 0 0 0 0 0 0 0 0 0 0 0 0 0 3 6 10 6 3 3 3 0 0 0 0 0 0 0 0 3 3 3 3 6 3 3 6 6 6 0 0
0 0 0 0 0 0 0 0 0 0 0 0 0 0 0 0 0 6 6 6 10 0 0 0 0 0 0 0 0 0 0 0 0 0 0 3 6 6 13 10 6 6 6 3
0 0 0 0 0 0 0 0 0 0 0 0 0 0 0 0 0 3 6 3 3 0 0 0 0 0 0 0 0 0 0 0 0 0 6 6 6 6 6 6 6 6 6 6
0 0 0 0 0 0 0 0 0 0 0 0 0 0 0 0 0 0 0 6 6 0 0 0 0 0 0 0 0 0 0 0 0 0 3 3 3 3 3 6 10 6 3 3
0 0 0 0 0 0 0 0 0 0 0 0 0 0 0 0 0 0 3 3 3 0 0 0 0 0 0 0 0 0 3 0 0 0 3 3 3 10 6 3 6 3 3 3
0 0 0 0 0 0 0 0 0 0 0 0 0 0 0 0 0 3 3 3 0 0 0 0 0 0 0 0 0 0 0 0 0 0 3 3 3 3 6 3 6 3 3 3
0 0 0 0 0 0 0 0 0 0 0 0 0 0 0 0 0 0 3 0 0 0 0 0 0 0 0 0 0 0 3 0 0 0 0 0 3 3 3 6 0 0 0 0
0 0 0 0 0 0 0 0 0 0 0 0 0 0 0 0 0 0 0 3 3 3 3 0 0 0 0 0 0 3 3 3 3 0 0 0 0 0 0 3 0 0 0 0
0 0 0 0 0 0 0 0 0 0 0 0 0 0 0 0 0 0 0 0 0 0 0 0 0 0 0 3 0 3 3 3 0 0 0 0 0 0 0 0 0 0 0 0
0 0 0 0 0 0 0 0 0 0 0 0 0 0 0 0 0 0 0 0 0 0 0 0 0 3 3 3 3 3 0 0 0 0 0 0 0 0 0 0 0 0 0 0
0 0 0 0 0 0 0 0 0 0 0 0 0 0 0 0 0 0 0 0 0 0 0 0 0 3 3 3 0 0 0 0 0 0 0 0 0 0 0 0 0 0 0 0
0 0 0 0 0 0 0 0 0 0 0 0 0 0 0 0 0 0 0 0 0 0 0 0 0 3 3 0 0 0 0 0 0 0 0 0 0 0 0 0 0 0 0 0
0 0 0 0 0 0 0 0 0 0 0 0 0 0 0 0 0 0 0 0 0 0 0 0 0 0 0 0 0 0 0 0 0 0 0 0 0 0 0 0 0 0 0 0
0 0 0 0 0 0 0 0 0 0 0 0 0 0 0 0 0 0 0 0 0 0 0 0 0 0 0 0 0 0 0 0 0 3 3 0 0 0 0 0 0 0 0 0
0 0 0 0 0 0 0 0 0 0 0 0 0 0 0 0 0 0 0 0 0 0 0 0 0 0 0 0 0 0 3 0 0 3 3 3 3 0 0 0 0 0 0 0
0 0 0 0 0 0 0 0 0 0 0 0 0 0 0 0 0 0 0 0 0 0 0 0 0 0 0 0 0 0 3 0 0 0 3 3 3 3 0 0 0 0 0 0
0 0 0 0 0 0 0 0 0 0 0 0 0 0 0 0 0 0 0 0 0 0 0 0 0 0 0 0 0 3 3 0 0 0 3 3 0 3 3 3 0 0 0 0
0 0 0 0 0 0 0 0 0 0 0 0 0 0 0 0 0 0 0 0 0 0 0 0 0 0 0 0 0 3 3 3 3 3 3 3 0 0 0 0 0 0 0 0
0 0 0 0 0 0 0 0 0 0 0 0 0 0 0 0 0 0 0 0 0 0 0 0 0 0 0 0 0 3 3 3 3 3 3 0 0 0 0 0 0 0 0 0
0 0 0 0 0 0 0 0 0 0 0 0 0 0 0 0 0 0 0 0 0 0 0 0 0 0 0 0 0 3 3 3 3 3 0 0 0 0 0 0 0 0 0 0
0 0 0 0 0 0 0 0 0 0 0 0 0 0 0 0 0 0 0 0 0 0 0 0 0 0 0 0 3 3 3 3 0 0 0 0 0 0 0 0 0 0 0 0
0 0 0 0 0 0 0 0 0 0 0 0 0 0 0 0 0 0 0 0 0 0 0 0 0 0 0 0 3 3 3 0 0 0 0 0 0 0 0 0 0 0 0 0
0 0 0 0 0 0 0 0 0 0 0 0 0 0 0 0 0 0 0 0 0 0 0 0 0 0 0 3 3 3 3 0 0 0 0 0 0 0 0 0 0 0 0 0
0 0 0 0 0 0 0 0 0 0 0 0 0 0 0 0 0 0 0 0 0 0 0 0 0 0 0 0 0 0 0 0 0 0 0 0 0 0 0 0 0 0 0 0
0 0 0 0 0 0 0 0 0 0 0 0 0 0 0 0 0 0 0 0 0 0 0 0 0 0 0 0 0 0 0 0 0 0 0 0 0 0 0 0 0 0 0 0
Height
5839 5839 5840 5840 5841 5842 5842 5843 5844 5844 5844 5844 5844 5844 5844 5844 5844 5844 5844 5845 5845 5846 5847 5847 5848 5849 5850 5851 5852 5853 5854 5854 5855 5856 5857 5857 5858 5858 5859 5859 5859 5859 5859 5859
5834 5835 5836 5837 5837 5838 5838 5839 5840 5840 5841 5841 5841 5841 5841 5841 5842 5842 5842 5843 5844 5844 5845 5846 5846 5847 5848 5849 5850 5850 5851 5852 5852 5853 5854 5855 5855 5856 5856 5856 5856 5856 5856 5856
5830 5830 5831 5833 5834 5834 5834 5835 5836 5836 5838 5838 5838 5838 5839 5839 5839 5840 5840 5841 5842 5842 5843 5844 5844 5845 5846 5846 5847 5847 5848 5849 5850 5850 5851 5852 5852 5853 5853 5853 5853 5853 5853 5852
5825 5826 5826 5830 5829 5830 5830 5831 5832 5832 5833 5834 5835 5835 5836 5836 5837 5837 5838 5839 5839 5840 5840 5841 5842 5842 5843 5844 5844 5845 5845 5846 5847 5848 5848 5849 5849 5850 5850 5850 5850 5849 5849 5849
5819 5820 5822 5824 5825 5825 5826 5826 5827 5828 5829 5830 5830 5831 5832 5833 5834 5835 5835 5836 5836 5837 5838 5838 5839 5840 5840 5841 5842 5842 5843 5844 5844 5845 5845 5846 5846 5846 5846 5846 5846 5845 5845 5845
5814 5815 5816 5819 5820 5820 5821 5821 5823 5823 5823 5825 5826 5827 5829 5829 5830 5831 5831 5832 5833 5834 5834 5835 5836 5836 5837 5838 5839 5839 5840 5840 5841 5842 5842 5842 5842 5842 5842 5842 5842 5841 5840 5840
5808 5809 5810 5813 5814 5815 5817 5818 5817 5817 5818 5819 5821 5822 5824 5825 5826 5827 5828 5829 5830 5830 5831 5832 5833 5833 5834 5834 5835 5836 5836 5837 5837 5838 5838 5838 5838 5838 5838 5838 5837 5837 5836 5835
5801 5803 5807 5807 5808 5810 5810 5810 5811 5812 5813 5814 5816 5818 5819 5821 5822 5823 5824 5825 5826 5827 5827 5828 5829 5830 5830 5831 5831 5832 5832 5832 5833 5833 5833 5833 5833 5833 5833 5833 5832 5832 5831 5830
5796 5799 5800 5800 5801 5803 5804 5805 5806 5807 5808 5809 5811 5813 5814 5816 5817 5818 5819 5820 5821 5822 5823 5824 5825 5825 5826 5827 5827 5827 5828 5828 5828 5828 5829 5829 5829 5829 5828 5828 5827 5827 5826 5825
5788 5790 5792 5793 5795 5796 5797 5799 5800 5801 5803 5804 5806 5807 5809 5810 5811 5813 5814 5815 5817 5818 5819 5820 5820 5821 5821 5822 5822 5823 5823 5823 5824 5824 5824 5824 5824 5823 5823 5822 5822 5821 5820 5819
5781 5783 5784 5786 5788 5789 5791 5792 5794 5795 5796 5798 5800 5801 5803 5804 5806 5807 5808 5810 5811 5813 5814 5815 5815 5816 5816 5817 5817 5817 5818 5818 5818 5818 5818 5818 5818 5818 5817 5816 5816 5815 5814 5813
5775 5776 5777 5779 5780 5782 5784 5785 5787 5788 5790 5791 5793 5795 5796 5798 5800 5801 5803 5804 5805 5807 5808 5809 5810 5811 5811 5812 5812 5813 5813 5813 5813 5813 5813 5813 5813 5812 5811 5810 5810 5809 5808 5807
5767 5768 5770 5772 5774 5775 5777 5778 5780 5781 5783 5784 5786 5788 5790 5791 5793 5795 5797 5798 5800 5801 5802 5803 5804 5805 5806 5806 5807 5807 5807 5807 5807 5807 5807 5807 5807 5806 5806 5805 5804 5803 5801 5800
5759 5761 5763 5765 5767 5768 5769 5771 5773 5774 5776 5777 5779 5781 5782 5784 5786 5788 5790 5792 5793 5795 5796 5797 5798 5799 5799 5800 5801 5801 5801 5801 5801 5801 5801 5801 5801 5800 5800 5799 5798 5797 5795 5794
5752 5753 5755 5757 5759 5760 5762 5764 5765 5767 5768 5770 5771 5773 5775 5777 5779 5781 5783 5784 5786 5787 5789 5790 5791 5792 5793 5793 5794 5795 5795 5795 5795 5795 5795 5794 5794 5794 5793 5792 5791 5790 5789 5787
5743 5745 5747 5749 5751 5753 5754 5756 5758 5759 5761 5762 5763 5765 5767 5769 5771 5773 5775 5777 5779 5780 5782 5783 5784 5785 5786 5786 5787 5788 5788 5788 5788 5788 5788 5787 5787 5786 5786 5785 5784 5783 5781 5780
5734 5736 5738 5740 5743 5745 5747 5749 5750 5752 5753 5754 5756 5758 5760 5762 5763 5765 5767 5769 5771 5773 5774 5775 5777 5778 5778 5779 5780 5780 5780 5780 5780 5780 5780 5780 5779 5779 5778 5777 5776 5775 5773 5771
5725 5728 5730 5732 5734 5737 5739 5741 5743 5745 5746 5747 5749 5750 5752 5754 5756 5757 5759 5761 5763 5765 5766 5767 5769 5770 5771 5771 5772 5772 5773 5773 5772 5772 5772 5772 5771 5770 5770 5768 5767 5766 5764 5762
5716 5719 5721 5723 5726 5728 5730 5733 5735 5737 5738 5740 5742 5743 5745 5746 5748 5749 5751 5753 5755 5757 5758 5760 5761 5761 5762 5763 5764 5764 5764 5764 5764 5764 5764 5763 5763 5762 5761 5760 5758 5757 5755 5753
5707 5710 5712 5714 5717 5719 5721 5724 5726 5728 5730 5732 5734 5735 5737 5738 5740 5741 5743 5745 5747 5749 5750 5751 5752 5753 5754 5755 5755 5756 5756 5756 5756 5756 5756 5755 5754 5753 5752 5751 5749 5747 5746 5744
5698 5700 5702 5705 5707 5710 5712 5715 5717 5719 5722 5724 5725 5727 5728 5730 5731 5733 5735 5737 5738 5740 5741 5743 5744 5745 5745 5746 5746 5747 5747 5747 5747 5747 5747 5746 5745 5744 5743 5741 5739 5738 5736 5734
5688 5690 5693 5695 5698 5700 5703 5705 5708 5710 5712 5715 5716 5718 5720 5721 5722 5724 5726 5728 5729 5731 5732 5733 5735 5736 5736 5737 5737 5738 5738 5738 5738 5737 5737 5736 5735 5734 5733 5732 5730 5728 5726 5724
5679 5681 5683 5686 5688 5691 5693 5696 5698 5701 5703 5705 5707 5709 5711 5712 5714 5715 5717 5718 5720 5721 5723 5724 5725 5726 5727 5727 5728 5728 5728 5728 5728 5728 5727 5726 5726 5725 5723 5722 5720 5718 5716 5714
5669 5672 5674 5676 5679 5681 5684 5686 5689 5691 5693 5696 5698 5700 5701 5703 5705 5706 5707 5709 5710 5711 5713 5714 5715 5716 5717 5718 5718 5718 5718 5718 5718 5717 5717 5716 5716 5714 5713 5711 5710 5708 5706 5704
5659 5661 5664 5666 5669 5671 5674 5676 5679 5681 5684 5686 5688 5690 5691 5693 5695 5696 5698 5699 5700 5701 5703 5704 5705 5706 5707 5707 5708 5708 5708 5708 5707 5707 5707 5706 5705 5704 5702 5701 5699 5697 5695 5693
5649 5651 5653 5656 5658 5661 5663 5666 5668 5671 5674 5676 5678 5680 5681 5683 5684 5686 5687 5689 5690 5691 5692 5693 5694 5695 5696 5696 5697 5697 5696 5696 5696 5696 5695 5695 5694 5692 5691 5689 5688 5686 5684 5682
5638 5640 5643 5645 5647 5650 5652 5655 5658 5660 5663 5665 5667 5669 5671 5673 5674 5676 5677 5678 5679 5680 5682 5683 5683 5684 5685 5685 5685 5685 5685 5685 5685 5684 5683 5683 5682 5680 5679 5678 5676 5674 5672 5670
Wind_Speed
17 16 15 15 15 14 14 14 15 14 13 13 12 12 12 12 11 10 10 9 8 8 8 9 9 9 9 9 9 10 10 10 10 10 10 9 9 9 9 9 10 10 10 10
18 17 17 16 16 16 16 16 16 15 14 14 13 13 12 12 12 11 10 9 9 9 9 9 9 9 10 9 10 11 11 11 11 11 11 11 10 10 10 10 11 11 11 12
19 18 19 18 17 17 17 17 17 17 17 15 14 14 14 13 12 11 11 10 10 11 10 10 10 10 9 9 10 10 11 11 11 11 11 11 12 12 12 12 12 12 12 12
21 20 20 18 18 18 18 18 18 19 18 17 15 15 14 13 12 12 12 11 11 11 11 10 10 11 10 10 10 10 10 11 11 12 12 12 12 13 13 13 12 13 14 14
22 22 22 21 20 19 19 19 19 19 19 18 18 17 15 14 13 12 13 13 12 12 12 11 11 11 11 11 11 11 11 11 12 12 13 13 13 14 14 14 15 15 15 16
23 23 24 22 21 20 21 20 19 19 19 19 19 18 16 16 15 14 14 13 13 13 13 12 12 11 11 12 12 12 12 13 13 13 13 14 14 15 15 15 16 16 17 17
24 24 25 23 22 21 21 21 19 20 19 19 19 19 17 16 16 15 15 15 14 14 14 14 13 13 13 13 13 13 14 14 14 14 14 15 15 15 16 16 17 17 17 17
25 26 26 24 23 23 22 21 20 20 20 19 19 19 18 18 17 16 16 16 16 16 15 15 15 14 14 14 14 15 15 15 15 15 15 16 16 16 16 17 17 17 18 18
26 26 25 24 24 23 23 22 21 21 21 20 19 20 19 19 19 18 18 18 17 17 17 16 16 16 15 15 15 16 16 16 16 17 16 17 17 17 18 18 18 18 19 19
26 26 26 26 25 24 23 23 23 22 22 21 21 20 20 20 20 20 20 19 19 18 17 17 17 17 17 17 17 17 17 18 18 18 18 18 18 19 19 19 20 19 19 20
27 26 26 26 26 26 24 24 24 24 23 23 22 22 21 21 21 21 20 20 20 20 19 19 19 18 18 18 18 18 18 19 19 19 19 20 20 20 21 21 21 22 22 22
27 26 27 26 26 26 26 25 25 25 25 25 24 23 22 22 22 22 21 21 21 21 21 21 20 19 19 19 19 18 18 18 19 20 19 20 20 21 21 21 21 22 22 23
29 28 27 26 25 26 26 26 26 26 25 25 25 24 24 24 24 23 23 23 22 23 22 22 22 21 20 20 20 20 20 19 19 19 20 20 20 21 21 21 21 21 21 22
30 29 28 26 26 27 27 26 27 27 27 26 25 25 25 25 25 25 25 25 24 24 24 24 23 23 22 22 21 21 21 21 21 21 21 22 22 22 22 22 22 22 22 23
31 31 30 29 28 28 28 27 26 27 27 27 27 26 26 27 26 26 26 26 25 25 25 25 25 24 23 23 23 23 23 22 23 23 23 23 23 23 23 23 24 24 24 25
32 32 31 30 29 29 29 28 27 26 27 27 27 26 26 27 27 27 28 28 27 27 26 26 25 24 24 25 25 25 25 24 24 25 24 24 24 24 24 25 25 26 27 27
32 31 31 31 31 31 30 29 27 26 26 26 26 26 27 27 28 28 28 28 28 27 27 26 26 26 26 26 26 26 26 26 26 26 26 26 26 26 26 27 27 27 28 29
32 31 31 32 32 32 31 30 29 28 27 26 26 27 27 28 28 28 28 28 28 28 28 27 27 27 27 27 27 27 27 26 26 26 26 26 26 27 27 28 28 29 30 30
32 32 32 32 32 32 32 31 31 29 28 28 27 27 27 27 28 29 28 28 28 28 28 28 29 29 29 28 28 28 27 27 27 27 27 27 26 27 28 29 29 30 30 31
34 33 33 34 34 34 33 33 32 31 29 29 29 28 28 28 29 29 30 30 29 29 29 28 29 29 29 29 29 28 28 28 28 28 28 28 28 29 29 30 31 31 31 32
35 34 34 34 34 34 34 33 33 32 31 30 30 29 29 30 30 30 31 31 30 30 30 30 30 29 29 30 30 30 29 29 29 29 29 29 30 31 31 31 32 32 32 33
34 34 34 34 34 35 35 34 33 33 32 32 31 31 30 30 30 31 31 31 31 31 31 31 31 30 31 31 31 30 30 31 31 31 31 31 31 32 32 32 32 32 32 33
34 33 34 34 34 35 34 34 33 33 32 32 32 32 31 31 30 30 31 31 32 32 32 32 32 32 32 32 32 32 32 32 32 32 32 32 32 32 32 33 33 34 34 34
35 35 35 35 34 34 34 34 34 34 33 33 33 32 32 32 32 31 32 32 32 33 33 33 33 33 33 33 33 33 33 33 33 33 33 33 33 34 34 34 34 34 35 36
35 36 35 35 35 35 35 35 35 35 34 33 33 33 33 33 33 33 33 32 32 32 33 33 34 34 34 34 34 34 34 34 34 34 34 34 35 35 35 35 35 35 36 36
36 36 36 35 35 35 35 35 35 35 35 35 34 33 33 33 33 33 33 33 34 34 34 34 35 35 35 36 36 35 35 35 35 36 36 36 36 37 37 37 36 37 37 37
35 35 35 35 36 36 36 36 35 35 35 35 34 34 33 33 33 33 34 34 34 35 35 35 35 35 35 35 35 35 36 35 35 36 37 37 38 38 38 38 38 38 39 39
Wind_Direction
258 262 266 268 267 264 261 259 259 261 261 267 275 281 283 282 278 275 267 260 258 257 255 253 251 249 244 244 249 254 255 255 256 259 258 258 262 270 275 276 279 282 285 287
256 258 261 264 266 265 263 260 261 261 262 262 266 272 277 279 274 270 265 262 259 261 260 258 257 254 251 251 252 256 257 260 260 259 257 260 265 272 275 276 281 284 287 288
257 257 258 260 262 263 263 262 262 261 262 263 259 264 269 269 265 263 264 264 265 263 261 261 256 251 253 258 257 257 257 262 261 261 261 265 271 274 277 278 279 281 286 289
256 257 259 262 263 265 265 264 263 262 262 260 258 261 265 264 262 262 263 263 263 264 260 260 260 255 257 260 259 263 264 262 262 262 264 267 270 272 274 277 282 284 285 287
254 255 259 260 261 263 265 265 264 263 262 259 256 257 261 261 259 261 262 260 262 263 261 260 262 260 260 261 261 261 264 265 266 267 266 268 270 270 273 278 282 284 286 286
253 254 257 261 263 264 264 264 262 261 261 259 256 255 255 258 258 258 259 260 260 261 259 257 260 262 262 261 261 262 263 265 266 267 269 269 271 272 274 278 282 284 284 285
254 254 256 260 262 263 263 264 262 262 261 259 256 255 255 256 257 259 258 258 259 258 257 258 261 265 265 264 262 262 265 266 267 268 270 273 274 273 275 278 281 284 286 285
254 255 256 259 259 259 261 261 259 261 261 260 256 254 254 254 256 257 258 259 260 258 257 258 260 264 266 266 266 265 267 268 267 269 271 273 274 275 277 280 282 283 284 286
254 256 259 258 259 260 258 259 259 259 260 259 256 254 253 254 255 254 258 259 259 258 258 259 260 263 267 266 267 268 268 268 271 271 272 273 275 278 280 281 283 284 285 286
255 257 257 256 257 258 256 257 258 258 258 256 256 256 254 254 255 258 259 257 258 259 261 261 262 265 267 268 269 268 269 269 271 273 274 274 275 279 281 281 282 282 284 285
255 256 256 255 255 255 254 254 254 257 256 256 255 254 254 252 253 257 257 255 256 258 261 262 265 266 267 268 270 271 270 270 271 274 276 276 278 281 282 282 281 282 282 284
255 255 255 255 255 252 253 254 255 257 258 256 255 254 254 252 252 255 255 255 255 257 259 262 264 266 267 269 271 272 272 273 274 276 279 281 282 284 284 283 282 283 282 284
252 254 256 258 257 255 254 255 255 257 259 258 254 254 254 254 254 253 254 255 257 257 258 261 262 265 266 268 269 270 272 273 274 277 280 282 284 285 286 284 285 287 287 288
251 252 254 256 258 259 258 257 257 256 256 256 254 254 254 254 254 252 252 255 257 257 258 259 261 262 264 266 268 269 271 273 274 277 280 280 282 284 285 285 286 288 289 290
251 252 253 256 257 258 259 259 259 258 255 255 253 253 253 253 253 252 252 253 255 256 257 259 260 261 262 265 267 269 270 272 274 276 277 279 280 282 284 285 286 287 287 289
251 251 253 254 254 255 256 258 260 260 256 254 254 253 252 252 253 253 253 254 255 256 257 258 259 260 261 264 266 269 270 271 274 275 276 279 281 282 284 286 287 287 287 288
250 251 252 252 253 253 254 257 259 260 258 254 253 252 251 252 253 254 253 254 255 256 257 258 259 261 261 263 266 269 272 273 274 275 277 280 280 281 284 287 288 288 289 289
249 251 251 251 252 253 253 254 257 259 258 257 253 252 252 252 253 253 252 253 255 255 256 258 260 261 261 263 265 270 273 275 276 276 278 279 279 280 282 285 287 288 288 289
250 251 250 250 251 251 252 253 254 257 258 257 256 255 253 253 254 254 253 254 256 256 257 258 260 261 261 264 267 269 272 275 276 277 278 280 281 282 284 286 288 289 289 290
251 252 251 250 249 250 250 252 253 255 256 256 257 257 255 256 255 254 255 256 257 258 259 260 261 262 264 266 267 269 273 275 276 277 278 280 282 284 285 287 288 288 288 289
251 252 251 250 248 249 250 251 252 253 254 255 256 257 257 258 257 256 257 257 257 258 259 261 262 264 266 267 267 269 272 273 274 276 277 279 282 284 286 288 289 288 288 289
250 251 251 251 251 250 250 251 251 251 252 254 255 256 257 258 258 258 259 258 258 259 260 260 261 263 266 267 268 270 272 273 275 277 277 278 280 282 285 287 288 288 289 290
251 252 251 251 250 250 250 250 250 251 252 254 254 256 257 257 257 258 259 259 260 261 260 260 262 264 266 267 268 270 272 274 275 277 278 279 281 283 285 286 288 289 289 291
252 253 251 250 249 249 249 249 250 252 253 254 254 255 257 257 257 258 259 259 261 261 261 261 262 264 266 268 269 270 271 273 275 276 277 279 281 283 285 286 287 288 289 290
253 253 251 250 251 250 250 250 250 251 252 254 255 256 257 257 258 259 259 259 260 261 261 262 263 265 266 268 270 270 271 273 275 276 278 279 280 282 284 285 286 288 290 290
254 252 250 250 249 250 250 250 251 251 252 254 256 257 257 257 258 259 260 260 261 261 262 263 264 266 268 269 270 271 272 274 275 276 277 278 280 281 282 284 285 287 289 290
254 253 251 249 249 249 250 250 251 251 252 254 255 256 257 257 258 258 260 261 261 261 263 264 265 267 268 269 271 273 275 276 276 276 277 278 279 281 282 284 285 287 288 289